H1 CPF 2 NER 2021 3 12 9 071 01 glonass143 H2 2007501 9143 46805 2021 3 12 0 0 0 2021 3 15 23 45 0 900 1 1 0 0 0 1 H9 10 0 59285 0.00000 0 -8802684.948 13222337.220 19967365.342 10 0 59285 900.00000 0 -8940036.698 10675127.362 21380307.768 10 0 59285 1800.00000 0 -9285490.625 7998149.079 22378351.360 10 0 59285 2700.00000 0 -9846385.287 5259737.120 22942124.275 10 0 59285 3600.00000 0 -10617741.014 2529308.993 23060670.207 10 0 59285 4500.00000 0 -11582366.410 -125293.267 22731660.957 10 0 59285 5400.00000 0 -12711493.807 -2640389.007 21961443.481 10 0 59285 6300.00000 0 -13965918.022 -4958866.183 20764920.375 10 0 59285 7200.00000 0 -15297591.528 -7032310.847 19165265.749 10 0 59285 8100.00000 0 -16651610.061 -8822771.336 17193481.463 10 0 59285 9000.00000 0 -17968506.255 -10304084.638 14887801.583 10 0 59285 9900.00000 0 -19186755.653 -11462710.341 12292955.933 10 0 59285 10800.00000 0 -20245390.293 -12298038.137 9459306.308 10 0 59285 11700.00000 0 -21086610.150 -12822156.705 6441871.545 10 0 59285 12600.00000 0 -21658282.389 -13059094.311 3299260.116 10 0 59285 13500.00000 0 -21916222.764 -13043563.778 92530.869 10 0 59285 14400.00000 0 -21826162.371 -12819265.400 -3115995.804 10 0 59285 15300.00000 0 -21365316.028 -12436820.119 -6263952.768 10 0 59285 16200.00000 0 -20523485.214 -11951421.027 -9290142.802 10 0 59285 17100.00000 0 -19303648.135 -11420303.282 -12135732.822 10 0 59285 18000.00000 0 -17722011.123 -10900140.129 -14745401.788 10 0 59285 18900.00000 0 -15807518.376 -10444475.921 -17068419.480 10 0 59285 19800.00000 0 -13600839.783 -10101305.232 -19059634.864 10 0 59285 20700.00000 0 -11152878.731 -9910900.938 -20680354.615 10 0 59285 21600.00000 0 -8522861.704 -9903983.354 -21899094.825 10 0 59285 22500.00000 0 -5776089.010 -10100307.997 -22692191.526 10 0 59285 23400.00000 0 -2981440.039 -10507731.753 -23044258.441 10 0 59285 24300.00000 0 -208736.456 -11121796.938 -22948483.497 10 0 59285 25200.00000 0 2473927.519 -11925850.970 -22406758.674 10 0 59285 26100.00000 0 5002777.251 -12891696.746 -21429640.938 10 0 59285 27000.00000 0 7320765.264 -13980746.584 -20036145.162 10 0 59285 27900.00000 0 9379695.010 -15145631.413 -18253373.098 10 0 59285 28800.00000 0 11141973.329 -16332197.711 -16115985.544 10 0 59285 29700.00000 0 12581919.777 -17481808.397 -13665527.828 10 0 59285 30600.00000 0 13686579.407 -18533850.984 -10949621.525 10 0 59285 31500.00000 0 14456006.299 -19428347.448 -8021038.096 10 0 59285 32400.00000 0 14903007.374 -20108555.891 -4936672.359 10 0 59285 33300.00000 0 15052358.608 -20523454.271 -1756435.825 10 0 59285 34200.00000 0 14939527.885 -20630001.341 1457908.360 10 0 59285 35100.00000 0 14608959.491 -20395079.280 4643945.989 10 0 59285 36000.00000 0 14111993.595 -19797035.816 7739824.294 10 0 59285 36900.00000 0 13504509.365 -18826760.575 10685452.494 10 0 59285 37800.00000 0 12844391.809 -17488249.952 13423666.933 10 0 59285 38700.00000 0 12188929.706 -15798636.236 15901338.197 10 0 59285 39600.00000 0 11592254.590 -13787679.260 18070398.811 10 0 59285 40500.00000 0 11102928.837 -11496741.207 19888771.916 10 0 59285 41400.00000 0 10761784.385 -8977286.608 21321183.455 10 0 59285 42300.00000 0 10600102.916 -6288969.398 22339842.564 10 0 59285 43200.00000 0 10638213.915 -3497385.685 22924977.645 10 0 59285 44100.00000 0 10884569.457 -671584.668 23065218.213 10 0 59285 45000.00000 0 11335334.655 2118559.851 22757815.439 10 0 59285 45900.00000 0 11974511.226 4805009.399 22008697.292 10 0 59285 46800.00000 0 12774589.381 7324142.873 20832357.083 10 0 59285 47700.00000 0 13697701.253 9619154.429 19251577.232 10 0 59285 48600.00000 0 14697228.077 11642168.569 17296993.074 10 0 59285 49500.00000 0 15719794.276 13355985.325 15006504.429 10 0 59285 50400.00000 0 16707565.206 14735383.472 12424545.660 10 0 59285 51300.00000 0 17600752.295 15767928.122 9601227.670 10 0 59285 52200.00000 0 18340220.314 16454249.513 6591367.917 10 0 59285 53100.00000 0 18870086.803 16807781.855 3453427.002 10 0 59285 54000.00000 0 19140203.674 16853973.822 248372.375 10 0 59285 54900.00000 0 19108415.675 16629004.502 -2961508.630 10 0 59285 55800.00000 0 18742499.544 16178059.564 -6113822.887 10 0 59285 56700.00000 0 18021701.048 15553241.056 -9147288.581 10 0 59285 57600.00000 0 16937803.969 14811199.798 -12002931.070 10 0 59285 58500.00000 0 15495684.879 14010591.079 -14625233.556 10 0 59285 59400.00000 0 13713329.303 13209461.808 -16963219.718 10 0 59285 60300.00000 0 11621307.505 12462680.021 -18971446.945 10 0 59285 61200.00000 0 9261731.074 11819515.728 -20610890.614 10 0 59285 62100.00000 0 6686733.158 11321475.435 -21849702.320 10 0 59285 63000.00000 0 3956535.120 11000481.816 -22663827.551 10 0 59285 63900.00000 0 1137179.756 10877475.225 -23037471.061 10 0 59285 64800.00000 0 -1701975.170 10961495.850 -22963401.346 10 0 59285 65700.00000 0 -4490899.342 11249284.969 -22443088.619 10 0 59285 66600.00000 0 -7161558.932 11725421.920 -21486673.905 10 0 59285 67500.00000 0 -9650502.041 12362990.825 -20112770.008 10 0 59285 68400.00000 0 -11901253.815 13124748.871 -18348098.275 10 0 59285 69300.00000 0 -13866422.354 13964746.888 -16226968.130 10 0 59285 70200.00000 0 -15509428.720 14830333.857 -13790609.400 10 0 59285 71100.00000 0 -16805789.950 15664460.876 -11086370.174 10 0 59285 72000.00000 0 -17743902.552 16408187.321 -8166795.766 10 0 59285 72900.00000 0 -18325294.948 17003283.408 -5088606.593 10 0 59285 73800.00000 0 -18564339.502 17394819.143 -1911594.877 10 0 59285 74700.00000 0 -18487437.424 17533630.148 1302538.110 10 0 59285 75600.00000 0 -18131712.010 17378555.989 4491381.474 10 0 59285 76500.00000 0 -17543266.304 16898356.189 7593027.201 10 0 59285 77400.00000 0 -16775079.444 16073222.684 10547271.841 10 0 59285 78300.00000 0 -15884631.137 14895824.532 13296783.913 10 0 59285 79200.00000 0 -14931354.816 13371840.286 15788214.331 10 0 59285 80100.00000 0 -13974027.110 11519955.049 17973228.399 10 0 59285 81000.00000 0 -13068203.574 9371321.536 19809439.698 10 0 59285 81900.00000 0 -12263808.464 6968506.794 21261228.252 10 0 59285 82800.00000 0 -11602979.617 4363967.621 22300427.608 10 0 59285 83700.00000 0 -11118258.633 1618117.157 22906868.125 10 0 59285 84600.00000 0 -10831201.993 -1202938.080 23068766.470 10 0 59285 85500.00000 0 -10751471.122 -4029897.756 22782954.085 10 0 59286 0.00000 0 -10876439.354 -6792901.278 22054940.412 10 0 59286 900.00000 0 -11191332.535 -9424187.220 20898809.371 10 0 59286 1800.00000 0 -11669896.780 -11860669.246 19336951.188 10 0 59286 2700.00000 0 -12275566.817 -14046322.039 17399633.642 10 0 59286 3600.00000 0 -12963084.937 -15934279.728 15124420.841 10 0 59286 4500.00000 0 -13680503.628 -17488559.174 12555449.815 10 0 59286 5400.00000 0 -14371487.528 -18685337.299 9742578.364 10 0 59286 6300.00000 0 -14977817.893 -19513729.437 6740420.076 10 0 59286 7200.00000 0 -15441993.866 -19976036.474 3607284.971 10 0 59286 8100.00000 0 -15709820.384 -20087450.883 404046.232 10 0 59286 9000.00000 0 -15732872.846 -19875234.446 -2807044.870 10 0 59286 9900.00000 0 -15470733.620 -19377402.734 -5963572.301 10 0 59286 10800.00000 0 -14892904.896 -18640972.346 -9004172.799 10 0 59286 11700.00000 0 -13980315.980 -17719845.440 -11869733.321 10 0 59286 12600.00000 0 -12726360.264 -16672421.397 -14504544.415 10 0 59286 13500.00000 0 -11137416.965 -15559036.994 -16857386.641 10 0 59286 14400.00000 0 -9232834.476 -14439343.579 -18882528.552 10 0 59286 15300.00000 0 -7044374.980 -13369732.231 -20540616.631 10 0 59286 16200.00000 0 -4615142.587 -12400915.633 -21799439.936 10 0 59286 17100.00000 0 -1998038.862 -11575768.522 -22634554.857 10 0 59286 18000.00000 0 746190.466 -10927517.483 -23029758.071 10 0 59286 18900.00000 0 3551236.995 -10478355.911 -22977398.973 10 0 59286 19800.00000 0 6347745.042 -10238541.964 -22478525.809 10 0 59286 20700.00000 0 9065956.871 -10206016.926 -21542862.983 10 0 59286 21600.00000 0 11638378.468 -10366559.504 -20188620.122 10 0 59286 22500.00000 0 14002355.675 -10694469.029 -18442136.659 10 0 59286 23400.00000 0 16102454.167 -11153748.348 -16337368.776 10 0 59286 24300.00000 0 17892544.939 -11699736.141 -13915228.560 10 0 59286 25200.00000 0 19337509.223 -12281119.505 -11222788.025 10 0 59286 26100.00000 0 20414492.498 -12842241.574 -8312363.408 10 0 59286 27000.00000 0 21113656.144 -13325606.446 -5240497.503 10 0 59286 27900.00000 0 21438396.323 -13674475.321 -2066859.810 10 0 59286 28800.00000 0 21405021.885 -13835443.821 1146913.837 10 0 59286 29700.00000 0 21041905.927 -13760891.235 4338419.417 10 0 59286 30600.00000 0 20388147.647 -13411197.797 7445697.102 10 0 59286 31500.00000 0 19491801.651 -12756635.943 10408433.962 10 0 59286 32400.00000 0 18407750.003 -11778855.217 13169133.523 10 0 59286 33300.00000 0 17195307.067 -10471897.649 15674229.440 10 0 59286 34200.00000 0 15915658.249 -8842700.207 17875121.746 10 0 59286 35100.00000 0 14629240.406 -6911062.377 19729115.919 10 0 59286 36000.00000 0 13393173.831 -4709079.266 21200247.034 10 0 59286 36900.00000 0 12258853.330 -2280062.898 22259973.527 10 0 59286 37800.00000 0 11269798.949 323004.447 22887727.728 10 0 59286 38700.00000 0 10459855.909 3039421.718 23071313.019 10 0 59286 39600.00000 0 9851818.652 5803045.406 22807140.252 10 0 59286 40500.00000 0 9456536.120 8544797.384 22100299.044 10 0 59286 41400.00000 0 9272535.376 11195301.361 20964462.454 10 0 59286 42300.00000 0 9286179.083 13687539.441 19421626.573 10 0 59286 43200.00000 0 9472350.114 15959419.434 17501689.556 10 0 59286 44100.00000 0 9795634.503 17956146.923 15241877.516 10 0 59286 45000.00000 0 10211953.094 19632303.885 12686027.740 10 0 59286 45900.00000 0 10670573.204 20953547.638 9883742.416 10 0 59286 46800.00000 0 11116415.524 21897859.501 6889428.683 10 0 59286 47700.00000 0 11492558.750 22456291.080 3761243.377 10 0 59286 48600.00000 0 11742835.811 22633177.120 559962.812 10 0 59286 49500.00000 0 11814411.411 22445806.248 -2652200.320 10 0 59286 50400.00000 0 11660231.152 21923563.665 -5812809.475 10 0 59286 51300.00000 0 11241237.710 21106582.276 -8860422.145 10 0 59286 52200.00000 0 10528259.308 20043959.486 -11735788.847 10 0 59286 53100.00000 0 9503489.504 18791615.273 -14383009.170 10 0 59286 54000.00000 0 8161494.649 17409882.292 -16750621.965 10 0 59286 54900.00000 0 6509705.256 15960929.963 -18792608.110 10 0 59286 55800.00000 0 4568369.480 14506131.341 -20469286.116 10 0 59286 56700.00000 0 2369969.465 13103483.778 -21748083.242 10 0 59286 57600.00000 0 -41876.060 11805191.779 -22604167.321 10 0 59286 58500.00000 0 -2613977.971 10655513.480 -23020927.323 10 0 59286 59400.00000 0 -5285547.248 9688960.746 -22990293.686 10 0 59286 60300.00000 0 -7990488.456 8928927.844 -22512892.588 10 0 59286 61200.00000 0 -10659921.347 8386805.584 -21598031.396 10 0 59286 62100.00000 0 -13224826.359 8061617.271 -20263515.818 10 0 59286 63000.00000 0 -15618704.544 7940190.908 -18535302.283 10 0 59286 63900.00000 0 -17780141.767 7997859.589 -16446992.326 10 0 59286 64800.00000 0 -19655171.008 8199659.798 -14039178.635 10 0 59286 65700.00000 0 -21199334.925 8501976.415 -11358655.289 10 0 59286 66600.00000 0 -22379363.145 8854564.418 -8457507.470 10 0 59286 67500.00000 0 -23174394.957 9202861.366 -5392098.291 10 0 59286 68400.00000 0 -23576696.947 9490492.444 -2221972.424 10 0 59286 69300.00000 0 -23591846.276 9661861.711 991301.874 10 0 59286 70200.00000 0 -23238372.777 9664719.521 4185329.640 10 0 59286 71100.00000 0 -22546875.709 9452597.087 7298101.467 10 0 59286 72000.00000 0 -21558653.037 8987004.840 10269197.236 10 0 59286 72900.00000 0 -20323901.553 8239301.217 13040957.809 10 0 59286 73800.00000 0 -18899563.979 7192152.442 15559601.897 10 0 59286 74700.00000 0 -17346913.837 5840521.164 17776266.504 10 0 59286 75600.00000 0 -15728979.576 4192141.587 19647951.100 10 0 59286 76500.00000 0 -14107915.877 2267460.194 21138347.680 10 0 59286 77400.00000 0 -12542431.991 99043.520 22218541.149 10 0 59286 78300.00000 0 -11085384.274 -2269523.467 22867567.035 10 0 59286 79200.00000 0 -9781632.973 -4785203.763 23072816.292 10 0 59286 80100.00000 0 -8666252.249 -7387475.497 22830279.640 10 0 59286 81000.00000 0 -7763167.517 -10010619.420 22144626.960 10 0 59286 81900.00000 0 -7084276.425 -12586232.892 21029120.067 10 0 59286 82800.00000 0 -6629089.694 -15045866.958 19505360.248 10 0 59286 83700.00000 0 -6384906.373 -17323677.875 17602874.950 10 0 59286 84600.00000 0 -6327515.780 -19358983.589 15358550.891 10 0 59286 85500.00000 0 -6422396.420 -21098619.161 12815923.914 10 0 59287 0.00000 0 -6626361.204 -22498993.342 10024338.702 10 0 59287 900.00000 0 -6889579.377 -23527760.356 7037993.658 10 0 59287 1800.00000 0 -7157889.818 -24165037.664 3914890.169 10 0 59287 2700.00000 0 -7375307.154 -24404117.293 715705.233 10 0 59287 3600.00000 0 -7486614.673 -24251642.513 -2497389.600 10 0 59287 4500.00000 0 -7439933.269 -23727241.160 -5661939.925 10 0 59287 5400.00000 0 -7189157.008 -22862631.750 -8716426.725 10 0 59287 6300.00000 0 -6696151.149 -21700240.005 -11601466.866 10 0 59287 7200.00000 0 -5932618.613 -20291384.337 -14260971.787 10 0 59287 8100.00000 0 -4881554.831 -18694106.996 -16643241.382 10 0 59287 9000.00000 0 -3538228.334 -16970742.434 -18701971.459 10 0 59287 9900.00000 0 -1910644.644 -15185325.453 -20397154.923 10 0 59287 10800.00000 0 -19472.709 -13400948.135 -21695859.239 10 0 59287 11700.00000 0 2102564.136 -11677176.484 -22572865.293 10 0 59287 12600.00000 0 4411808.204 -10067634.979 -23011155.465 10 0 59287 13500.00000 0 6855252.633 -8617859.791 -23002241.895 10 0 59287 14400.00000 0 9372526.429 -7363509.989 -22546328.864 10 0 59287 15300.00000 0 11898197.319 -6329010.854 -21652306.448 10 0 59287 16200.00000 0 14364297.145 -5526685.171 -20337575.748 10 0 59287 17100.00000 0 16702965.255 -4956407.833 -18627709.116 10 0 59287 18000.00000 0 18849100.196 -4605797.149 -16555951.963 10 0 59287 18900.00000 0 20742909.690 -4450933.720 -14162575.687 10 0 59287 19800.00000 0 22332252.992 -4457575.551 -11494094.121 10 0 59287 20700.00000 0 23574678.181 -4582817.270 -8602358.671 10 0 59287 21600.00000 0 24439069.709 -4777122.569 -5543549.671 10 0 59287 22500.00000 0 24906837.735 -4986643.274 -2377083.573 10 0 59287 23400.00000 0 24972599.909 -5155726.344 835542.526 10 0 59287 24300.00000 0 24644327.605 -5229502.195 4031946.369 10 0 59287 25200.00000 0 23942951.060 -5156444.294 7150072.548 10 0 59287 26100.00000 0 22901440.547 -4890791.319 10129397.120 10 0 59287 27000.00000 0 21563402.735 -4394728.985 12912101.337 10 0 59287 27900.00000 0 19981251.518 -3640238.862 15444191.637 10 0 59287 28800.00000 0 18214030.394 -2610535.682 17676544.233 10 0 59287 29700.00000 0 16324977.733 -1301031.888 19565854.360 10 0 59287 30600.00000 0 14378936.772 280211.947 21075472.252 10 0 59287 31500.00000 0 12439718.427 2112570.620 22176110.129 10 0 59287 32400.00000 0 10567526.575 4163469.421 22846407.104 10 0 59287 33300.00000 0 8816552.671 6389506.363 23073341.622 10 0 59287 34200.00000 0 7232839.333 8738036.034 22852483.735 10 0 59287 35100.00000 0 5852501.177 11149150.393 22188082.600 10 0 59287 36000.00000 0 4700376.309 13557975.416 21092987.364 10 0 59287 36900.00000 0 3789164.002 15897189.121 19588402.698 10 0 59287 37800.00000 0 3119083.864 18099657.232 17703483.190 10 0 59287 38700.00000 0 2678070.112 20101077.558 15474773.734 10 0 59287 39600.00000 0 2442492.285 21842523.332 12945506.080 10 0 59287 40500.00000 0 2378371.643 23272779.753 10164764.469 10 0 59287 41400.00000 0 2443041.602 24350376.139 7186535.908 10 0 59287 42300.00000 0 2587181.809 25045228.505 4068663.242 10 0 59287 43200.00000 0 2757139.454 25339823.537 871721.189 10 0 59287 44100.00000 0 2897439.112 25229893.983 -2342162.737 10 0 59287 45000.00000 0 2953374.224 24724556.823 -5510519.031 10 0 59287 45900.00000 0 2873569.709 23845908.228 -8571754.712 10 0 59287 46800.00000 0 2612406.240 22628092.244 -11466355.266 10 0 59287 47700.00000 0 2132202.621 21115882.382 -14138045.934 10 0 59287 48600.00000 0 1405062.839 19362835.901 -16534889.275 10 0 59287 49500.00000 0 414308.646 17429098.442 -18610297.317 10 0 59287 50400.00000 0 -844563.858 15378951.417 -20323938.342 10 0 59287 51300.00000 0 -2363445.074 13278205.116 -21642520.733 10 0 59287 52200.00000 0 -4121709.735 11191546.728 -22540438.860 10 0 59287 53100.00000 0 -6086848.606 9179954.167 -23000268.694 10 0 59287 54000.00000 0 -8215608.584 7298283.470 -23013103.950 10 0 59287 54900.00000 0 -10455594.416 5593130.014 -22578726.580 10 0 59287 55800.00000 0 -12747265.860 4101052.173 -21705608.575 10 0 59287 56700.00000 0 -15026247.647 2847230.645 -20410745.272 10 0 59287 57600.00000 0 -17225856.476 1844618.352 -18719323.425 10 0 59287 58500.00000 0 -19279740.056 1093615.287 -16664230.475 10 0 59287 59400.00000 0 -21124518.467 582280.595 -14285414.432 10 0 59287 60300.00000 0 -22702317.893 287071.654 -11629106.607 10 0 59287 61200.00000 0 -23963091.028 174077.884 -8746922.256 10 0 59287 62100.00000 0 -24866627.362 200696.099 -5694856.520 10 0 59287 63000.00000 0 -25384169.405 317675.716 -2532195.217 10 0 59287 63900.00000 0 -25499567.321 471446.530 679638.112 10 0 59287 64800.00000 0 -25209923.894 606629.870 3878276.293 10 0 59287 65700.00000 0 -24525703.023 668626.271 7001620.260 10 0 59287 66600.00000 0 -23470297.574 606169.642 9989044.576 10 0 59287 67500.00000 0 -22079075.020 373739.432 12782573.152 10 0 59287 68400.00000 0 -20397941.164 -66271.594 15328002.320 10 0 59287 69300.00000 0 -18481482.312 -741725.937 17575949.503 10 0 59287 70200.00000 0 -16390763.702 -1669324.033 19482807.467 10 0 59287 71100.00000 0 -14190876.096 -2853661.317 21011586.144 10 0 59287 72000.00000 0 -11948332.712 -4286800.025 22132626.170 10 0 59287 72900.00000 0 -9728424.579 -5948374.650 22824170.960 10 0 59287 73800.00000 0 -7592643.840 -7806227.748 23072786.761 10 0 59287 74700.00000 0 -5596281.600 -9817550.674 22873622.890 10 0 59287 75600.00000 0 -3786299.417 -11930482.947 22230507.343 10 0 59287 76500.00000 0 -2199562.140 -14086104.859 21155875.848 10 0 59287 77400.00000 0 -861504.879 -16220741.385 19670535.407 10 0 59287 78300.00000 0 214711.199 -18268482.485 17803266.421 10 0 59287 79200.00000 0 1028519.812 -20163815.528 15590270.384 10 0 59287 80100.00000 0 1591734.484 -21844260.539 13074473.152 10 0 59287 81000.00000 0 1927807.173 -23252898.496 10304696.586 10 0 59287 81900.00000 0 2070592.373 -24340686.997 7334714.007 10 0 59287 82800.00000 0 2062669.267 -25068466.058 4222207.497 10 0 59287 83700.00000 0 1953293.349 -25408569.596 1027647.118 10 0 59287 84600.00000 0 1796064.673 -25345974.457 -2186886.084 10 0 59287 85500.00000 0 1646412.043 -24878938.169 -5358909.965 10 0 59288 0.00000 0 1559000.391 -24019098.188 -8426760.011 10 0 59288 900.00000 0 1585172.338 -22791027.757 -11330792.946 10 0 59288 1800.00000 0 1770532.098 -21231267.598 -14014550.239 10 0 59288 2700.00000 0 2152776.790 -19386872.692 -16425859.511 10 0 59288 3600.00000 0 2759865.867 -17313536.300 -18517851.275 10 0 59288 4500.00000 0 3608608.282 -15073369.191 -20249871.231 10 0 59288 5400.00000 0 4703727.343 -12732427.410 -21588270.413 10 0 59288 6300.00000 0 6037443.782 -10358091.826 -22507058.045 10 0 59288 7200.00000 0 7589595.371 -8016408.924 -22988404.643 10 0 59288 8100.00000 0 9328288.955 -5769503.460 -23022986.038 10 0 59288 9000.00000 0 11211058.435 -3673170.405 -22610161.965 10 0 59288 9900.00000 0 13186480.875 -1774745.945 -21757986.055 10 0 59288 10800.00000 0 15196183.857 -111345.352 -20483047.238 10 0 59288 11700.00000 0 17177160.719 1291459.853 -18810145.664 10 0 59288 12600.00000 0 19064297.339 2420471.422 -16771809.452 10 0 59288 13500.00000 0 20793005.153 3275167.280 -14407661.497 10 0 59288 14400.00000 0 22301850.576 3867466.576 -11763648.489 10 0 59288 15300.00000 0 23535070.870 4220968.121 -8891147.061 10 0 59288 16200.00000 0 24444871.193 4369695.620 -5845964.351 10 0 59288 17100.00000 0 24993406.615 4356403.849 -2687252.455 10 0 59288 18000.00000 0 25154365.972 4230518.312 523641.926 10 0 59288 18900.00000 0 24914091.148 4045796.383 3724370.047 10 0 59288 19800.00000 0 24272184.878 3857809.632 6852792.510 10 0 59288 20700.00000 0 23241581.610 3721354.401 9848185.543 10 0 59288 21600.00000 0 21848078.548 3687900.694 12652418.644 10 0 59288 22500.00000 0 20129346.560 3803187.597 15211080.660 10 0 59288 23400.00000 0 18133462.382 4105067.159 17474532.500 10 0 59288 24300.00000 0 15917023.399 4621688.033 19398866.379 10 0 59288 25200.00000 0 13542923.517 5370095.832 20946753.461 10 0 59288 26100.00000 0 11077882.527 6355309.579 22088163.945 10 0 59288 27000.00000 0 8589831.412 7569913.676 22800946.287 10 0 59288 27900.00000 0 6145261.630 8994183.386 23071254.851 10 0 59288 28800.00000 0 3806647.914 10596739.486 22893818.074 10 0 59288 29700.00000 0 1630050.770 12335705.856 22272042.182 10 0 59288 30600.00000 0 -337002.635 14160322.808 21217948.379 10 0 59288 31500.00000 0 -2057271.940 16012949.889 19751944.434 10 0 59288 32400.00000 0 -3505119.393 17831375.585 17902434.571 10 0 59288 33300.00000 0 -4667334.016 19551338.360 15705274.529 10 0 59288 34200.00000 0 -5543430.489 21109154.216 13203081.622 10 0 59288 35100.00000 0 -6145411.031 22444341.245 10444412.473 10 0 59288 36000.00000 0 -6497000.990 23502131.312 7482823.721 10 0 59288 36900.00000 0 -6632390.920 24235763.295 4375833.610 10 0 59288 37800.00000 0 -6594538.819 24608461.195 1183804.465 10 0 59288 38700.00000 0 -6433104.900 24595013.379 -2031232.169 10 0 59288 39600.00000 0 -6202106.838 24182885.831 -5206784.449 10 0 59288 40500.00000 0 -5957395.515 23372821.854 -8281119.201 10 0 59288 41400.00000 0 -5754058.912 22178902.334 -11194466.676 10 0 59288 42300.00000 0 -5643864.887 20628063.413 -13890186.892 10 0 59288 43200.00000 0 -5672851.942 18759091.418 -16315874.447 10 0 59288 44100.00000 0 -5879170.728 16621136.822 -18424379.892 10 0 59288 45000.00000 0 -6291268.303 14271809.358 -20174727.549 10 0 59288 45900.00000 0 -6926492.555 11774933.795 -21532911.987 10 0 59288 46800.00000 0 -7790176.376 9198060.012 -22472557.834 10 0 59288 47700.00000 0 -8875240.786 6609831.121 -22975430.386 10 0 59288 48600.00000 0 -10162334.373 4077319.064 -23031787.472 10 0 59288 49500.00000 0 -11620503.835 1663438.157 -22640566.146 10 0 59288 50400.00000 0 -13208368.016 -575456.258 -21809400.826 10 0 59288 51300.00000 0 -14875746.806 -2591684.936 -20554472.780 10 0 59288 52200.00000 0 -16565677.152 -4347990.481 -18900193.920 10 0 59288 53100.00000 0 -18216732.046 -5818840.044 -16878731.056 10 0 59288 54000.00000 0 -19765545.712 -6991231.975 -14529379.701 10 0 59288 54900.00000 0 -21149439.335 -7864974.111 -11897799.453 10 0 59288 55800.00000 0 -22309037.313 -8452423.488 -9035125.716 10 0 59288 56700.00000 0 -23190764.290 -8777699.868 -5996974.966 10 0 59288 57600.00000 0 -23749118.088 -8875407.581 -2842362.904 10 0 59288 58500.00000 0 -23948622.923 -8788920.754 367443.248 10 0 59288 59400.00000 0 -23765380.727 -8568305.437 3570115.793 10 0 59288 60300.00000 0 -23188155.247 -8267967.321 6703477.549 10 0 59288 61200.00000 0 -22218943.200 -7944125.204 9706708.901 10 0 59288 62100.00000 0 -20873008.395 -7652217.581 12521527.312 10 0 59288 63000.00000 0 -19178377.136 -7444352.397 15093316.375 10 0 59288 63900.00000 0 -17174815.887 -7366907.915 17372182.486 10 0 59288 64800.00000 0 -14912333.618 -7458386.188 19313919.018 10 0 59288 65700.00000 0 -12449270.967 -7747609.783 20880859.722 10 0 59288 66600.00000 0 -9850055.426 -8252337.914 22042605.321 10 0 59288 67500.00000 0 -7182715.352 -8978360.473 22776609.848 10 0 59288 68400.00000 0 -4516255.398 -9919108.523 23068615.903 10 0 59288 69300.00000 0 -1918001.598 -11055798.204 22912930.768 10 0 59288 70200.00000 0 548974.614 -12358102.838 22312538.270 10 0 59288 71100.00000 0 2828247.504 -13785326.069 21279044.157 10 0 59288 72000.00000 0 4872144.843 -15288027.872 19832455.747 10 0 59288 72900.00000 0 6643485.753 -16810036.423 18000799.628 10 0 59288 73800.00000 0 8116877.177 -18290762.447 15819584.077 10 0 59288 74700.00000 0 9279515.654 -19667719.793 13331115.940 10 0 59288 75600.00000 0 10131461.707 -20879147.011 10583684.446 10 0 59288 76500.00000 0 10685376.093 -21866620.072 7630627.197 10 0 59288 77400.00000 0 10965729.623 -22577546.332 4529296.082 10 0 59288 78300.00000 0 11007520.507 -22967434.468 1339943.053 10 0 59288 79200.00000 0 10854554.001 -23001844.226 -1875452.542 10 0 59288 80100.00000 0 10557357.653 -22657933.072 -5054391.843 10 0 59288 81000.00000 0 10170821.051 -21925533.754 -8135075.601 10 0 59288 81900.00000 0 9751660.687 -20807716.449 -11057610.248 10 0 59288 82800.00000 0 9355817.972 -19320811.032 -13765176.735 10 0 59288 83700.00000 0 9035901.276 -17493887.743 -16205138.880 10 0 59288 84600.00000 0 8838780.924 -15367717.383 -18330069.315 10 0 59288 85500.00000 0 8803439.409 -12993254.176 -20098672.766 99